sat.trackr.live / text

‹ back to catalog

STARLINK-32140

NORAD 61511 · 2024-183C

PAYLOAD ACTIVE UNKNOWN

§ Identity

Operator
Country
US
Launch date
2024-10-15
Launch site
AFETR
Launch vehicle
Mass (kg)
RCS (m²)

Purposes: comms

External: N2YO · Heavens-Above · Gunter

§ Orbital elements

Epoch: 2026-05-25T00:16:13.666656Z

Period
94.01 min
Inclination
53.1594°
Eccentricity
0.0001035
Mean motion
15.31705707 rev/d
Perigee alt
470.0 km
Apogee alt
471.4 km
Semi-major
6,848.9 km
B*
2.3939e-5
RAAN
147.5218°
Arg perigee
71.3279°
Mean anomaly
288.7835°
Rev number
9,134

§ Raw data

STARLINK-321401 61511U 24183C   26145.01126929  .00000378  00000+0  23939-4 0  99972 61511  53.1594 147.5218 0001035  71.3279 288.7835 15.31705707 91343

JSON: /api/v1/satellites/61511 · /tle

For live sub-satellite position, see the globe view (requires WebGL).

§ Visibility from observer

Set your observer location to see the next 7 days of passes ≥ 10°. The values pass through the URL so the page stays shareable.

No JS? Fill the form by hand. The geolocation button needs JavaScript.